Satellite: NOAA-11 Catalog number: 19531 Epoch time: 11027.19379137 Element set: 379 Inclination: 098.7568 deg RA of node: 117.3087 deg Eccentricity: 0.0010474 Arg of perigee: 229.2546 deg Mean anomaly: 130.7682 deg Mean motion: 14.14901711 rev/day Decay rate: -1.49e-06 rev/day^2 Epoch rev: 15281 Checksum: 305
Satellite: NOAA-12 Catalog number: 21263 Epoch time: 11026.74253643 Element set: 0873 Inclination: 098.7578 deg RA of node: 044.7874 deg Eccentricity: 0.0011623 Arg of perigee: 236.3337 deg Mean anomaly: 123.6732 deg Mean motion: 14.25680154 rev/day Decay rate: 1.9e-07 rev/day^2 Epoch rev: 02425 Checksum: 291
Satellite: MET-3/5 Catalog number: 21655 Epoch time: 11026.90826407 Element set: 0024 Inclination: 082.5598 deg RA of node: 150.5864 deg Eccentricity: 0.0014168 Arg of perigee: 146.4097 deg Mean anomaly: 213.7960 deg Mean motion: 13.17028598 rev/day Decay rate: 5.1e-07 rev/day^2 Epoch rev: 93512 Checksum: 305
Satellite: MET-2/21 Catalog number: 22782 Epoch time: 11027.67996387 Element set: 2 Inclination: 082.5456 deg RA of node: 074.3623 deg Eccentricity: 0.0023638 Arg of perigee: 130.5221 deg Mean anomaly: 229.8014 deg Mean motion: 13.83651811 rev/day Decay rate: -9.0e-07 rev/day^2 Epoch rev: 87912 Checksum: 296
Satellite: OKEAN-4 Catalog number: 23317 Epoch time: 11026.87714245 Element set: 0458 Inclination: 082.5421 deg RA of node: 145.0696 deg Eccentricity: 0.0020938 Arg of perigee: 221.7560 deg Mean anomaly: 138.2068 deg Mean motion: 14.82929146 rev/day Decay rate: 1.97e-06 rev/day^2 Epoch rev: 87960 Checksum: 314
Satellite: NOAA-14 Catalog number: 23455 Epoch time: 11026.77836314 Element set: 0361 Inclination: 098.8612 deg RA of node: 110.7806 deg Eccentricity: 0.0008954 Arg of perigee: 326.0173 deg Mean anomaly: 034.0437 deg Mean motion: 14.13805230 rev/day Decay rate: -3.4e-07 rev/day^2 Epoch rev: 82909 Checksum: 283
Satellite: NOAA-15 Catalog number: 25338 Epoch time: 11027.44384592 Element set: 688 Inclination: 098.6428 deg RA of node: 015.6131 deg Eccentricity: 0.0011271 Arg of perigee: 138.8220 deg Mean anomaly: 221.3836 deg Mean motion: 14.24879372 rev/day Decay rate: -7.2e-07 rev/day^2 Epoch rev: 66068 Checksum: 308
Satellite: RESURS Catalog number: 25394 Epoch time: 11026.89753442 Element set: 0710 Inclination: 098.2987 deg RA of node: 037.7070 deg Eccentricity: 0.0000914 Arg of perigee: 329.2176 deg Mean anomaly: 030.8949 deg Mean motion: 14.24222102 rev/day Decay rate: -1.4e-07 rev/day^2 Epoch rev: 65219 Checksum: 286
Satellite: FENGYUN1 Catalog number: 25730 Epoch time: 11026.88498944 Element set: 0243 Inclination: 098.8044 deg RA of node: 351.2745 deg Eccentricity: 0.0022869 Arg of perigee: 349.9385 deg Mean anomaly: 010.1360 deg Mean motion: 14.08487591 rev/day Decay rate: -1.93e-06 rev/day^2 Epoch rev: 60317 Checksum: 317
Satellite: OKEAN-0 Catalog number: 25860 Epoch time: 11026.93935329 Element set: 0215 Inclination: 097.8646 deg RA of node: 357.4340 deg Eccentricity: 0.0001905 Arg of perigee: 077.0081 deg Mean anomaly: 283.1341 deg Mean motion: 14.73704098 rev/day Decay rate: 5.6e-07 rev/day^2 Epoch rev: 61985 Checksum: 302
Satellite: NOAA-16 Catalog number: 26536 Epoch time: 11027.40828136 Element set: 168 Inclination: 099.1553 deg RA of node: 054.9940 deg Eccentricity: 0.0011202 Arg of perigee: 070.3013 deg Mean anomaly: 289.9391 deg Mean motion: 14.12596077 rev/day Decay rate: 2.97e-06 rev/day^2 Epoch rev: 53348 Checksum: 304
Satellite: NOAA-17 Catalog number: 27453 Epoch time: 11026.75851516 Element set: 0163 Inclination: 098.4000 deg RA of node: 072.8322 deg Eccentricity: 0.0011474 Arg of perigee: 199.1501 deg Mean anomaly: 160.9255 deg Mean motion: 14.24229975 rev/day Decay rate: -1.08e-06 rev/day^2 Epoch rev: 44652 Checksum: 289
Satellite: NOAA-18 Catalog number: 28654 Epoch time: 11026.82009954 Element set: 0649 Inclination: 098.9793 deg RA of node: 337.7527 deg Eccentricity: 0.0014708 Arg of perigee: 140.2706 deg Mean anomaly: 219.9504 deg Mean motion: 14.11430808 rev/day Decay rate: 3.2e-07 rev/day^2 Epoch rev: 29298 Checksum: 325
Satellite: NOAA-19 Catalog number: 33591 Epoch time: 11026.78612991 Element set: 0843 Inclination: 098.8137 deg RA of node: 329.4204 deg Eccentricity: 0.0014664 Arg of perigee: 019.4269 deg Mean anomaly: 340.7440 deg Mean motion: 14.11123326 rev/day Decay rate: -1.15e-06 rev/day^2 Epoch rev: 10144 Checksum: 285
/EX SB KEPS @ AMSAT $ORB11027.M Orbital Elements 11027.MISC
HR AMSAT ORBITAL ELEMENTS FOR MANNED AND MISCELLANEOUS SATELLITES FROM WA5QGD FORT WORTH,TX January 27, 2011 Send Subscribe/unsubscribe to KEPS at http://www.amsat.org/mailman/listinfo/keps BID: ORB11027.M TO ALL RADIO AMATEURS BT
Satellite: HUBBLE Catalog number: 20580 Epoch time: 11026.64937645 Element set: 706 Inclination: 028.4692 deg RA of node: 220.8594 deg Eccentricity: 0.0003338 Arg of perigee: 058.8207 deg Mean anomaly: 301.2683 deg Mean motion: 15.01146526 rev/day Decay rate: 4.02e-06 rev/day^2 Epoch rev: 93836 Checksum: 288
Satellite: ISS Catalog number: 25544 Epoch time: 11027.97546650 Element set: 720 Inclination: 051.6442 deg RA of node: 159.8098 deg Eccentricity: 0.0003759 Arg of perigee: 236.9418 deg Mean anomaly: 226.5219 deg Mean motion: 15.72182954 rev/day Decay rate: 1.2032e-04 rev/day^2 Epoch rev: 69883 Checksum: 321
Satellite: CO-58 Catalog number: 28895 Epoch time: 11027.43866102 Element set: 786 Inclination: 097.9864 deg RA of node: 269.1023 deg Eccentricity: 0.0017069 Arg of perigee: 304.5368 deg Mean anomaly: 055.4254 deg Mean motion: 14.59999588 rev/day Decay rate: 2.33e-06 rev/day^2 Epoch rev: 27970 Checksum: 360
Satellite: FALCON Catalog number: 30776 Epoch time: 11027.67641747 Element set: 9 Inclination: 035.4323 deg RA of node: 120.9610 deg Eccentricity: 0.0001794 Arg of perigee: 330.5494 deg Mean anomaly: 029.5121 deg Mean motion: 15.04081060 rev/day Decay rate: 6.27e-06 rev/day^2 Epoch rev: 21387 Checksum: 263
Satellite: MAST Catalog number: 31126 Epoch time: 11027.62141232 Element set: 70 Inclination: 097.9108 deg RA of node: 062.6908 deg Eccentricity: 0.0093593 Arg of perigee: 248.1113 deg Mean anomaly: 111.0112 deg Mean motion: 14.53667533 rev/day Decay rate: 9.8e-07 rev/day^2 Epoch rev: 20066 Checksum: 257
Satellite: CAPE1 Catalog number: 31130 Epoch time: 11026.92393796 Element set: 0091 Inclination: 097.9126 deg RA of node: 059.0209 deg Eccentricity: 0.0101564 Arg of perigee: 259.9120 deg Mean anomaly: 099.0593 deg Mean motion: 14.52282285 rev/day Decay rate: -8.0e-07 rev/day^2 Epoch rev: 20013 Checksum: 280
Satellite: COMPASS Catalog number: 32787 Epoch time: 11026.92240295 Element set: 893 Inclination: 097.8661 deg RA of node: 093.2824 deg Eccentricity: 0.0014651 Arg of perigee: 278.3236 deg Mean anomaly: 081.6311 deg Mean motion: 14.82118071 rev/day Decay rate: -3.5e-07 rev/day^2 Epoch rev: 14863 Checksum: 297
Satellite: AAUSAT2 Catalog number: 32788 Epoch time: 11026.70015350 Element set: 0883 Inclination: 097.8650 deg RA of node: 093.2445 deg Eccentricity: 0.0014199 Arg of perigee: 278.5027 deg Mean anomaly: 081.4525 deg Mean motion: 14.82282286 rev/day Decay rate: 4.50e-06 rev/day^2 Epoch rev: 14861 Checksum: 303
Satellite: DO-64 Catalog number: 32789 Epoch time: 11026.94761771 Element set: 0901 Inclination: 097.8750 deg RA of node: 094.2534 deg Eccentricity: 0.0014375 Arg of perigee: 275.7937 deg Mean anomaly: 084.1639 deg Mean motion: 14.82561842 rev/day Decay rate: 7.57e-06 rev/day^2 Epoch rev: 14865 Checksum: 349
Satellite: CO-66 Catalog number: 32791 Epoch time: 11027.18232427 Element set: 883 Inclination: 097.8669 deg RA of node: 093.5166 deg Eccentricity: 0.0015013 Arg of perigee: 275.8098 deg Mean anomaly: 084.1373 deg Mean motion: 14.81863120 rev/day Decay rate: -1.40e-06 rev/day^2 Epoch rev: 14862 Checksum: 314
Satellite: RS-30 Catalog number: 32953 Epoch time: 11027.61369316 Element set: 421 Inclination: 082.4990 deg RA of node: 250.1197 deg Eccentricity: 0.0018972 Arg of perigee: 335.8561 deg Mean anomaly: 024.1629 deg Mean motion: 12.43010572 rev/day Decay rate: 1.0e-07 rev/day^2 Epoch rev: 12162 Checksum: 266
Satellite: TACSAT-3 Catalog number: 35001 Epoch time: 11026.97344326 Element set: 0496 Inclination: 040.4553 deg RA of node: 307.2579 deg Eccentricity: 0.0023758 Arg of perigee: 242.4989 deg Mean anomaly: 117.3412 deg Mean motion: 15.44556764 rev/day Decay rate: 4.569e-05 rev/day^2 Epoch rev: 09521 Checksum: 312
Satellite: PHARMSAT Catalog number: 35002 Epoch time: 11026.93571651 Element set: 0465 Inclination: 040.4706 deg RA of node: 304.9763 deg Eccentricity: 0.0025691 Arg of perigee: 245.8997 deg Mean anomaly: 113.9145 deg Mean motion: 15.44787035 rev/day Decay rate: 4.304e-05 rev/day^2 Epoch rev: 09523 Checksum: 298
Satellite: HAWKSAT1 Catalog number: 35003 Epoch time: 11026.76767609 Element set: 0499 Inclination: 040.4611 deg RA of node: 291.3146 deg Eccentricity: 0.0025226 Arg of perigee: 269.2924 deg Mean anomaly: 090.5020 deg Mean motion: 15.51355517 rev/day Decay rate: 1.3202e-04 rev/day^2 Epoch rev: 09537 Checksum: 278
Satellite: CP6 Catalog number: 35004 Epoch time: 11026.75425618 Element set: 0502 Inclination: 040.4600 deg RA of node: 287.5987 deg Eccentricity: 0.0024867 Arg of perigee: 275.1507 deg Mean anomaly: 084.6513 deg Mean motion: 15.53548131 rev/day Decay rate: 1.6068e-04 rev/day^2 Epoch rev: 09540 Checksum: 296
Satellite: AEROCUB3 Catalog number: 35005 Epoch time: 11006.09222617 Element set: 610 Inclination: 040.4461 deg RA of node: 021.7975 deg Eccentricity: 0.0025578 Arg of perigee: 084.1677 deg Mean anomaly: 280.7191 deg Mean motion: 16.39196088 rev/day Decay rate: 1.4049365e-01 rev/day^2 Epoch rev: 9254 Checksum: 305
